Regional Weather Roundup
Issued by NWS Midland/Odessa, TX

Skip options and go directly to product.
Home | Oldest Version | Previous Version | Current Version | All | Text Only | Save Text | Print | Product List | Glossary On

Skip product version selection by date and time.   
833
ASUS44 KMAF 231910
RWRMAF
MIDLAND AREA WEATHER ROUNDUP
NATIONAL WEATHER SERVICE MIDLAND TX
100 PM CST SUN NOV 23 2014

...IN SOUTHWEST TEXAS AND SOUTHEAST NEW MEXICO...

CITY           SKY/WX    TMP DP  RH WIND       PRES   REMARKS
ALPINE         MOSUNNY   65  29  25 W23G39    29.87F
ANDREWS        FAIR      67  24  19 NW25G38   29.68F
ARTESIA        NOT AVBL
BIG SPRING     PTSUNNY   73  31  20 W31G40    29.64F
CARLSBAD       SUNNY     70  22  16 W30G45    29.67F
DRYDEN           N/A     77  31  18 W20G37    29.68F
FORT STOCKTON  MOSUNNY   69  27  20 W22G39    29.74F
GUAD PASS      SUNNY     59  24  26 W45G53    29.79F
HOBBS          MOSUNNY   64  23  20 W36G46    29.69F
MARFA          MOSUNNY   61  28  29 W36G43    29.84F
MIDLAND AIRPK  SUNNY     70  27  20 NW26      29.67F
MIDLAND INTL   SUNNY     71  25  17 W28G37    29.66F
ODESSA         SUNNY     71  21  15 NW26G33   29.68F
PECOS          MOSUNNY   70  28  20 W36G41    29.73F
PRESIDIO       FAIR      71  33  24 SW8       29.84F
SEMINOLE       SUNNY     66  23  19 W35G41    29.69F
SNYDER         SUNNY     70  32  25 W35G40    29.57S
WINK           SUNNY     72  22  15 W24G31    29.69F
$$
...OTHER STATIONS IN TEXAS...

CITY           SKY/WX    TMP DP  RH WIND       PRES   REMARKS
ABILENE        SUNNY     74  34  23 W30G39    29.51F
AMARILLO       CLOUDY    51  24  34 N29G40    29.67R
AUSTIN         SUNNY     79  48  33 SW16G24   29.55F
BROWNSVILLE    SUNNY     82  58  43 S9        29.70F
CORPUS CHRISTI SUNNY     77  63  61 SW10      29.66F
DALLAS FTW     MOSUNNY   72  44  36 SW17      29.39F
DEL RIO        SUNNY     76  49  38 SE3       29.65F
EL PASO        MOSUNNY   63  26  24 W28G39    29.86F
HOUSTON INT    SUNNY     76  54  46 SW13G20   29.58F
LUBBOCK        MOSUNNY   66  25  21 NW18G29   29.59F
SAN ANGELO     SUNNY     75  28  17 W23G35    29.61F
SAN ANTONIO    SUNNY     79  45  29 SW16G24   29.62F
WACO           SUNNY     74  45  35 SW17G25   29.47F
WICHITA FALLS  NOT AVBL
$$
...OTHER LOCATIONS IN NEW MEXICO...

CITY           SKY/WX    TMP DP  RH WIND       PRES   REMARKS
ALAMAGORDO     MOSUNNY   61  23  23 NW14G24   29.84F
ALBUQUERQUE    PTSUNNY   46  20  35 NW31G39   29.87F WCI  36
CANNON AFB     LGT RAIN  49  32  52 NE25      29.67S
CLOVIS         CLOUDY    54  28  37 N28G36    29.69R
HOLLOMAN AFB   MOSUNNY   62  23  22 W17G23    29.82F
ROSWELL        SUNNY     65  23  20 W36G46    29.68F
RUIDOSO        PTSUNNY   43  19  39 NW21G41   29.83F WCI  34
SANTA FE       CLOUDY    43  15  32 NW20G25   29.78F WCI  34
TRUTH OR CONSE SUNNY     59  21  23 NW24G33   29.85F
TUCUMCARI      LGT RAIN  42  34  73 NE21      29.75R WCI  33
$$

USA.gov is the U.S. government's official web portal to all federal, state and local government web resources and services.